When you browse on this site, cookies collect data to enhance your experience and personalize the content and advertising you see.
Visit our Privacy Policy to learn more. By continuing to use the site, you agree to this use of cookies and data.
  • In Lithuania
  • List of Countries
  • For 7 days
  • Water Temperature
  • Weather Map
  • Weather Widgets
  • user-avatar
    Login

    Hourly Weather Mayrhofen

    Today, 21 October, Monday

    Time Temperature Precipitation Wind Pressure Humidity
    00:00 +7°C° 0 mm 3 mps 618 mmHg 91%
    01:00 +7°C° 0 mm 3 mps 618 mmHg 91%
    02:00 +7°C° 0 mm 3 mps 618 mmHg 92%
    03:00 +7°C° 0 mm 3 mps 618 mmHg 92%
    04:00 +7°C° 0 mm 3 mps 617 mmHg 92%
    05:00 +7°C° 0 mm 3 mps 618 mmHg 92%
    06:00 +7°C° 0 mm 3 mps 618 mmHg 91%
    07:00 +7°C° 0 mm 3 mps 619 mmHg 91%
    08:00 +8°C° 0.1 mm 3 mps 620 mmHg 88%
    09:00 +9°C° 0.1 mm 2 mps 620 mmHg 85%
    10:00 +10°C° 0.1 mm 2 mps 621 mmHg 82%
    11:00 +10°C° 0 mm 2 mps 621 mmHg 80%
    12:00 +12°C° 0 mm 2 mps 622 mmHg 78%
    13:00 +13°C° 0 mm 2 mps 622 mmHg 76%
    14:00 +13°C° 0 mm 2 mps 622 mmHg 78%
    15:00 +12°C° 0 mm 2 mps 622 mmHg 81%
    16:00 +12°C° 0 mm 2 mps 622 mmHg 83%
    17:00 +10°C° 0 mm 2 mps 622 mmHg 86%
    18:00 +9°C° 0 mm 2 mps 621 mmHg 90%
    19:00 +8°C° 0 mm 2 mps 621 mmHg 93%
    20:00 +8°C° 0 mm 2 mps 621 mmHg 94%
    21:00 +8°C° 0 mm 2 mps 622 mmHg 94%
    22:00 +7°C° 0 mm 2 mps 622 mmHg 94%
    23:00 +7°C° 0 mm 2 mps 622 mmHg 94%

    Tomorrow, 22 October, Tuesday

    Time Temperature Precipitation Wind Pressure Humidity
    00:00 +7°C° 0 mm 2 mps 622 mmHg 94%
    01:00 +7°C° 0 mm 2 mps 622 mmHg 95%
    02:00 +7°C° 0 mm 2 mps 622 mmHg 95%
    03:00 +7°C° 0 mm 1 mps 622 mmHg 95%
    04:00 +7°C° 0 mm 1 mps 621 mmHg 95%
    05:00 +7°C° 0 mm 1 mps 621 mmHg 94%
    06:00 +6°C° 0 mm 1 mps 621 mmHg 93%
    07:00 +6°C° 0 mm 1 mps 621 mmHg 92%
    08:00 +8°C° 0 mm 1 mps 622 mmHg 84%
    09:00 +11°C° 0 mm 1 mps 623 mmHg 76%
    10:00 +13°C° 0 mm 1 mps 624 mmHg 69%
    11:00 +14°C° 0 mm 1 mps 624 mmHg 65%
    12:00 +15°C° 0 mm 2 mps 624 mmHg 61%
    13:00 +16°C° 0 mm 2 mps 624 mmHg 57%
    14:00 +15°C° 0 mm 2 mps 624 mmHg 62%
    15:00 +14°C° 0 mm 2 mps 623 mmHg 67%
    16:00 +13°C° 0 mm 1 mps 623 mmHg 71%
    17:00 +12°C° 0 mm 2 mps 622 mmHg 75%
    18:00 +9°C° 0 mm 2 mps 622 mmHg 79%
    19:00 +7°C° 0 mm 2 mps 621 mmHg 83%
    20:00 +7°C° 0 mm 2 mps 621 mmHg 82%
    21:00 +7°C° 0 mm 2 mps 621 mmHg 82%
    22:00 +7°C° 0 mm 2 mps 621 mmHg 82%
    23:00 +7°C° 0 mm 2 mps 621 mmHg 81%

    Day after tomorrow, 23 October, Wednesday

    Time Temperature Precipitation Wind Pressure Humidity
    00:00 +5°C° 0 mm 3 mps 620 mmHg 80%
    01:00 +5°C° 0 mm 3 mps 620 mmHg 80%
    02:00 +5°C° 0 mm 3 mps 620 mmHg 78%
    03:00 +5°C° 0 mm 3 mps 620 mmHg 77%
    04:00 +5°C° 0 mm 3 mps 619 mmHg 75%
    05:00 +5°C° 0 mm 3 mps 619 mmHg 73%
    06:00 +5°C° 0 mm 3 mps 619 mmHg 71%
    07:00 +5°C° 0 mm 3 mps 618 mmHg 69%
    08:00 +8°C° 0 mm 3 mps 619 mmHg 62%
    09:00 +10°C° 0 mm 3 mps 620 mmHg 56%
    10:00 +13°C° 0 mm 3 mps 621 mmHg 49%
    11:00 +14°C° 0 mm 3 mps 621 mmHg 46%
    12:00 +14°C° 0 mm 3 mps 621 mmHg 43%
    13:00 +16°C° 0 mm 3 mps 621 mmHg 39%
    14:00 +14°C° 0 mm 3 mps 620 mmHg 45%
    15:00 +13°C° 0 mm 3 mps 620 mmHg 51%
    16:00 +12°C° 0 mm 3 mps 619 mmHg 57%
    17:00 +10°C° 0 mm 3 mps 618 mmHg 61%
    18:00 +8°C° 0 mm 3 mps 618 mmHg 66%
    19:00 +7°C° 0 mm 3 mps 617 mmHg 70%
    20:00 +5°C° 0 mm 3 mps 617 mmHg 72%
    21:00 +5°C° 0 mm 3 mps 617 mmHg 74%
    22:00 +5°C° 0 mm 3 mps 617 mmHg 76%
    23:00 +5°C° 0 mm 3 mps 617 mmHg 77%

    24 October, Thursday

    Time Temperature Precipitation Wind Pressure Humidity
    00:00 +5°C° 0 mm 3 mps 616 mmHg 78%
    01:00 +5°C° 0 mm 3 mps 616 mmHg 78%
    02:00 +5°C° 0 mm 3 mps 616 mmHg 77%
    03:00 +5°C° 0 mm 3 mps 616 mmHg 76%
    04:00 +5°C° 0 mm 3 mps 616 mmHg 74%
    05:00 +5°C° 0 mm 3 mps 616 mmHg 72%
    06:00 +5°C° 0 mm 3 mps 616 mmHg 70%
    07:00 +5°C° 0 mm 3 mps 616 mmHg 67%
    08:00 +8°C° 0 mm 3 mps 617 mmHg 62%
    09:00 +10°C° 0 mm 3 mps 617 mmHg 56%
    10:00 +13°C° 0 mm 2 mps 618 mmHg 51%
    11:00 +13°C° 0 mm 2 mps 618 mmHg 50%
    12:00 +14°C° 0 mm 2 mps 618 mmHg 49%
    13:00 +14°C° 0 mm 3 mps 619 mmHg 48%
    14:00 +13°C° 0.1 mm 3 mps 618 mmHg 55%
    15:00 +11°C° 0.1 mm 3 mps 618 mmHg 62%
    16:00 +10°C° 0.1 mm 3 mps 617 mmHg 69%
    17:00 +9°C° 0 mm 2 mps 617 mmHg 75%
    18:00 +7°C° 0 mm 2 mps 616 mmHg 81%
    19:00 +6°C° 0 mm 2 mps 616 mmHg 87%
    20:00 +6°C° 0 mm 2 mps 616 mmHg 88%
    21:00 +7°C° 0 mm 1 mps 617 mmHg 89%
    22:00 +6°C° 0 mm 1 mps 617 mmHg 90%
    23:00 +6°C° 0 mm 1 mps 617 mmHg 91%

    25 October, Friday

    Time Temperature Precipitation Wind Pressure Humidity
    00:00 +5°C° 0 mm 0 mps 617 mmHg 91%
    01:00 +5°C° 0 mm 0 mps 617 mmHg 91%
    02:00 +5°C° 0 mm 0 mps 617 mmHg 92%
    03:00 +4°C° 0 mm 0 mps 617 mmHg 92%
    04:00 +4°C° 0 mm 0 mps 617 mmHg 93%
    05:00 +4°C° 0 mm 0 mps 617 mmHg 92%
    06:00 +4°C° 0 mm 0 mps 617 mmHg 92%
    07:00 +4°C° 0 mm 0 mps 617 mmHg 92%
    08:00 +6°C° 0 mm 0 mps 618 mmHg 86%
    09:00 +9°C° 0 mm 1 mps 619 mmHg 80%
    10:00 +11°C° 0 mm 1 mps 620 mmHg 73%
    11:00 +11°C° 0 mm 1 mps 621 mmHg 71%
    12:00 +12°C° 0 mm 1 mps 621 mmHg 69%
    13:00 +13°C° 0 mm 1 mps 621 mmHg 67%
    14:00 +12°C° 0 mm 1 mps 621 mmHg 70%
    15:00 +12°C° 0 mm 1 mps 620 mmHg 73%
    16:00 +12°C° 0 mm 1 mps 620 mmHg 75%
    17:00 +10°C° 0 mm 1 mps 620 mmHg 81%
    18:00 +8°C° 0 mm 1 mps 619 mmHg 87%
    19:00 +6°C° 0 mm 0 mps 619 mmHg 92%
    20:00 +7°C° 0 mm 1 mps 619 mmHg 91%
    21:00 +7°C° 0 mm 1 mps 619 mmHg 89%
    22:00 +7°C° 0 mm 1 mps 619 mmHg 87%
    23:00 +7°C° 0 mm 1 mps 619 mmHg 87%

    26 October, Saturday

    Time Temperature Precipitation Wind Pressure Humidity
    00:00 +5°C° 0 mm 2 mps 619 mmHg 87%
    01:00 +5°C° 0 mm 2 mps 619 mmHg 87%
    02:00 +6°C° 0 mm 1 mps 619 mmHg 87%
    03:00 +6°C° 0 mm 1 mps 619 mmHg 87%
    04:00 +6°C° 0 mm 1 mps 618 mmHg 87%
    05:00 +5°C° 0 mm 1 mps 618 mmHg 86%
    06:00 +5°C° 0 mm 1 mps 618 mmHg 86%
    07:00 +5°C° 0 mm 1 mps 619 mmHg 86%
    08:00 +7°C° 0 mm 0 mps 620 mmHg 77%
    09:00 +9°C° 0 mm 0 mps 621 mmHg 69%
    10:00 +12°C° 0 mm 0 mps 622 mmHg 60%
    11:00 +13°C° 0 mm 0 mps 623 mmHg 57%
    12:00 +15°C° 0 mm 1 mps 623 mmHg 54%
    13:00 +16°C° 0 mm 1 mps 623 mmHg 52%
    14:00 +15°C° 0 mm 1 mps 623 mmHg 58%
    15:00 +14°C° 0 mm 1 mps 622 mmHg 63%
    16:00 +13°C° 0 mm 1 mps 622 mmHg 69%
    17:00 +11°C° 0 mm 1 mps 621 mmHg 75%
    18:00 +9°C° 0 mm 1 mps 621 mmHg 81%
    19:00 +7°C° 0 mm 1 mps 620 mmHg 87%
    20:00 +7°C° 0 mm 1 mps 620 mmHg 86%
    21:00 +7°C° 0 mm 1 mps 620 mmHg 84%
    22:00 +6°C° 0 mm 1 mps 620 mmHg 83%
    23:00 +6°C° 0 mm 1 mps 620 mmHg 81%
    Show more